{"data":{"norad_id":57055,"intl_designator":"2023-088H","name":"STARLINK-6237","alt_names":[],"object_type":"PAYLOAD","status":"ACTIVE","operator":null,"country":"US","launch_date":"2023-06-22","launch_site_code":"AFWTR","launch_vehicle":null,"mission":null,"orbit_class":"UNKNOWN","rcs_meters":null,"size_class":null,"mass_kg":null,"dimensions":null,"purposes":["comms"],"wikipedia_slug":null,"has_3d_model":false,"image_url":null,"decayed_at":null,"tle_current":{"epoch":"2026-09-20T20:40:29.517600Z","epoch_age_seconds":86923,"freshness":"FRESH","line1":"1 57055U 23088H   26263.86145275 -.00000216  00000+0  17115-5 0  9999","line2":"2 57055  43.0004  88.2414 0002546 247.7488 112.3093 15.27581761180189","mean_motion":15.27581761,"eccentricity":0.0002546,"inclination_deg":43.0004,"raan_deg":88.2414,"arg_perigee_deg":247.7488,"mean_anomaly_deg":112.3093,"bstar":1.7115e-6,"rev_number":18018,"period_min":94.266640042713,"perigee_km":481.29696633967,"apogee_km":484.79067961473,"semimajor_km":6861.1808229772,"source":"CELESTRAK","updated_at":"2026-09-21T09:00:33.549208Z"}}}